• In Kazakhstan
  • List of Countries
  • For 7 days
  • Water Temperature
  • Satellite Maps
  • Weather Map
  • News
  • Weather Widgets
  • user-avatar
    Login

    Hourly Weather Denver

    Today, 20 September, Wednesday

    Time Temperature Precipitation Wind Pressure Humidity
    00:00 +13°C° 0 mm 2 mps 624 mmHg 50%
    01:00 +13°C° 0 mm 2 mps 624 mmHg 53%
    02:00 +12°C° 0 mm 2 mps 624 mmHg 55%
    03:00 +11°C° 0 mm 3 mps 624 mmHg 55%
    04:00 +11°C° 0 mm 3 mps 625 mmHg 55%
    05:00 +10°C° 0 mm 3 mps 625 mmHg 55%
    06:00 +12°C° 0 mm 4 mps 626 mmHg 49%
    07:00 +14°C° 0 mm 5 mps 627 mmHg 44%
    08:00 +15°C° 0 mm 6 mps 627 mmHg 38%
    09:00 +19°C° 0 mm 6 mps 628 mmHg 34%
    10:00 +21°C° 0 mm 6 mps 628 mmHg 29%
    11:00 +24°C° 0 mm 6 mps 628 mmHg 24%
    12:00 +26°C° 0 mm 6 mps 628 mmHg 22%
    13:00 +27°C° 0 mm 6 mps 627 mmHg 20%
    14:00 +29°C° 0 mm 6 mps 627 mmHg 19%
    15:00 +28°C° 0 mm 6 mps 627 mmHg 20%
    16:00 +28°C° 0 mm 6 mps 626 mmHg 22%
    17:00 +27°C° 0 mm 6 mps 626 mmHg 23%
    18:00 +24°C° 0 mm 6 mps 626 mmHg 27%
    19:00 +21°C° 0 mm 6 mps 626 mmHg 31%
    20:00 +19°C° 0 mm 6 mps 626 mmHg 36%
    21:00 +17°C° 0 mm 6 mps 625 mmHg 38%
    22:00 +17°C° 0 mm 5 mps 625 mmHg 39%
    23:00 +16°C° 0 mm 5 mps 625 mmHg 41%

    Tomorrow, 21 September, Thursday

    Time Temperature Precipitation Wind Pressure Humidity
    00:00 +16°C° 0 mm 5 mps 624 mmHg 42%
    01:00 +15°C° 0 mm 4 mps 624 mmHg 43%
    02:00 +14°C° 0 mm 3 mps 623 mmHg 43%
    03:00 +14°C° 0 mm 3 mps 623 mmHg 43%
    04:00 +14°C° 0 mm 3 mps 623 mmHg 44%
    05:00 +13°C° 0 mm 3 mps 623 mmHg 44%
    06:00 +16°C° 0 mm 3 mps 623 mmHg 39%
    07:00 +18°C° 0 mm 3 mps 624 mmHg 35%
    08:00 +21°C° 0 mm 3 mps 624 mmHg 30%
    09:00 +24°C° 0 mm 3 mps 625 mmHg 26%
    10:00 +26°C° 0 mm 4 mps 625 mmHg 21%
    11:00 +28°C° 0 mm 4 mps 625 mmHg 17%
    12:00 +29°C° 0 mm 4 mps 625 mmHg 16%
    13:00 +30°C° 0 mm 5 mps 625 mmHg 15%
    14:00 +32°C° 0 mm 6 mps 625 mmHg 13%
    15:00 +32°C° 0 mm 5 mps 625 mmHg 15%
    16:00 +30°C° 0 mm 5 mps 624 mmHg 16%
    17:00 +29°C° 0 mm 5 mps 624 mmHg 17%
    18:00 +27°C° 0 mm 5 mps 624 mmHg 20%
    19:00 +23°C° 0 mm 5 mps 624 mmHg 23%
    20:00 +21°C° 0 mm 5 mps 624 mmHg 26%
    21:00 +20°C° 0 mm 5 mps 623 mmHg 29%
    22:00 +19°C° 0 mm 4 mps 623 mmHg 32%
    23:00 +18°C° 0 mm 4 mps 623 mmHg 34%

    Day after tomorrow, 22 September, Friday

    Time Temperature Precipitation Wind Pressure Humidity
    00:00 +18°C° 0 mm 4 mps 623 mmHg 37%
    01:00 +18°C° 0 mm 4 mps 622 mmHg 40%
    02:00 +17°C° 0 mm 4 mps 622 mmHg 42%
    03:00 +17°C° 0 mm 4 mps 622 mmHg 46%
    04:00 +16°C° 0 mm 3 mps 622 mmHg 49%
    05:00 +16°C° 0 mm 3 mps 622 mmHg 52%
    06:00 +18°C° 0 mm 4 mps 623 mmHg 47%
    07:00 +20°C° 0 mm 4 mps 623 mmHg 42%
    08:00 +22°C° 0 mm 5 mps 624 mmHg 37%
    09:00 +24°C° 0 mm 6 mps 624 mmHg 32%
    10:00 +27°C° 0 mm 7 mps 625 mmHg 27%
    11:00 +29°C° 0 mm 9 mps 625 mmHg 22%
    12:00 +29°C° 0 mm 9 mps 625 mmHg 22%
    13:00 +29°C° 0 mm 9 mps 624 mmHg 21%
    14:00 +31°C° 0 mm 9 mps 624 mmHg 20%
    15:00 +29°C° 0 mm 8 mps 624 mmHg 22%
    16:00 +28°C° 0 mm 6 mps 624 mmHg 25%
    17:00 +27°C° 0 mm 4 mps 623 mmHg 27%
    18:00 +23°C° 0.1 mm 4 mps 623 mmHg 36%
    19:00 +21°C° 0.1 mm 3 mps 623 mmHg 44%
    20:00 +18°C° 0.1 mm 3 mps 623 mmHg 53%
    21:00 +17°C° 0.1 mm 3 mps 623 mmHg 58%
    22:00 +16°C° 0.1 mm 3 mps 623 mmHg 64%
    23:00 +13°C° 0.1 mm 3 mps 623 mmHg 69%

    23 September, Saturday

    Time Temperature Precipitation Wind Pressure Humidity
    00:00 +12°C° 0 mm 3 mps 623 mmHg 71%
    01:00 +12°C° 0 mm 3 mps 623 mmHg 73%
    02:00 +12°C° 0 mm 2 mps 623 mmHg 75%
    03:00 +10°C° 0 mm 2 mps 623 mmHg 78%
    04:00 +10°C° 0 mm 2 mps 623 mmHg 81%
    05:00 +9°C° 0 mm 2 mps 623 mmHg 84%
    06:00 +10°C° 0 mm 2 mps 623 mmHg 80%
    07:00 +12°C° 0 mm 2 mps 624 mmHg 76%
    08:00 +13°C° 0 mm 2 mps 625 mmHg 72%
    09:00 +14°C° 0 mm 3 mps 625 mmHg 65%
    10:00 +17°C° 0 mm 4 mps 625 mmHg 59%
    11:00 +18°C° 0 mm 4 mps 625 mmHg 52%
    12:00 +17°C° 0.3 mm 5 mps 625 mmHg 54%
    13:00 +17°C° 0.3 mm 5 mps 624 mmHg 57%
    14:00 +17°C° 0.3 mm 5 mps 624 mmHg 59%
    15:00 +16°C° 0.9 mm 5 mps 624 mmHg 66%
    16:00 +15°C° 0.9 mm 4 mps 624 mmHg 74%
    17:00 +14°C° 0.9 mm 3 mps 624 mmHg 81%
    18:00 +13°C° 0.4 mm 3 mps 624 mmHg 84%
    19:00 +13°C° 0.4 mm 3 mps 624 mmHg 87%
    20:00 +12°C° 0.4 mm 3 mps 625 mmHg 89%
    21:00 +12°C° 0.2 mm 3 mps 625 mmHg 90%
    22:00 +11°C° 0.2 mm 3 mps 625 mmHg 90%
    23:00 +11°C° 0.2 mm 3 mps 625 mmHg 91%

    24 September, Sunday

    Time Temperature Precipitation Wind Pressure Humidity
    00:00 +11°C° 0.2 mm 3 mps 625 mmHg 91%
    01:00 +11°C° 0.2 mm 3 mps 625 mmHg 91%
    02:00 +10°C° 0.2 mm 3 mps 625 mmHg 91%
    03:00 +10°C° 0.1 mm 3 mps 625 mmHg 91%
    04:00 +10°C° 0.1 mm 3 mps 626 mmHg 91%
    05:00 +10°C° 0.1 mm 3 mps 626 mmHg 91%
    06:00 +10°C° 0.2 mm 3 mps 626 mmHg 91%
    07:00 +10°C° 0.2 mm 3 mps 625 mmHg 90%
    08:00 +10°C° 0.2 mm 3 mps 625 mmHg 90%
    09:00 +10°C° 0.1 mm 3 mps 625 mmHg 89%
    10:00 +10°C° 0.1 mm 3 mps 625 mmHg 88%
    11:00 +12°C° 0.1 mm 2 mps 625 mmHg 86%
    12:00 +11°C° 0.5 mm 3 mps 625 mmHg 87%
    13:00 +11°C° 0.5 mm 3 mps 624 mmHg 87%
    14:00 +11°C° 0.5 mm 3 mps 624 mmHg 87%
    15:00 +10°C° 2.1 mm 3 mps 624 mmHg 90%
    16:00 +9°C° 2.1 mm 3 mps 624 mmHg 92%
    17:00 +9°C° 2.1 mm 3 mps 624 mmHg 94%
    18:00 +9°C° 1.2 mm 3 mps 625 mmHg 94%
    19:00 +9°C° 1.2 mm 3 mps 625 mmHg 93%
    20:00 +7°C° 1.2 mm 4 mps 625 mmHg 93%
    21:00 +7°C° 0.5 mm 4 mps 625 mmHg 92%
    22:00 +7°C° 0.5 mm 4 mps 625 mmHg 92%
    23:00 +7°C° 0.5 mm 4 mps 625 mmHg 92%

    25 September, Monday

    Time Temperature Precipitation Wind Pressure Humidity
    00:00 +8°C° 0.1 mm 3 mps 625 mmHg 91%
    01:00 +8°C° 0.1 mm 3 mps 625 mmHg 91%
    02:00 +8°C° 0.1 mm 3 mps 625 mmHg 90%
    03:00 +8°C° 0.1 mm 3 mps 625 mmHg 90%
    04:00 +8°C° 0.1 mm 3 mps 625 mmHg 90%
    05:00 +7°C° 0.1 mm 3 mps 626 mmHg 90%
    06:00 +8°C° 0.1 mm 3 mps 626 mmHg 90%
    07:00 +8°C° 0.1 mm 2 mps 626 mmHg 89%
    08:00 +8°C° 0.1 mm 2 mps 626 mmHg 88%
    09:00 +8°C° 0.1 mm 3 mps 626 mmHg 86%
    10:00 +9°C° 0.1 mm 3 mps 626 mmHg 84%
    11:00 +9°C° 0.1 mm 3 mps 626 mmHg 82%
    12:00 +10°C° 0.1 mm 3 mps 626 mmHg 80%
    13:00 +10°C° 0.1 mm 2 mps 626 mmHg 78%
    14:00 +10°C° 0.1 mm 2 mps 626 mmHg 76%
    15:00 +10°C° 0.2 mm 2 mps 626 mmHg 77%
    16:00 +10°C° 0.2 mm 2 mps 626 mmHg 78%
    17:00 +10°C° 0.2 mm 2 mps 626 mmHg 80%
    18:00 +10°C° 0.4 mm 2 mps 627 mmHg 82%
    19:00 +9°C° 0.4 mm 3 mps 627 mmHg 83%
    20:00 +9°C° 0.4 mm 3 mps 628 mmHg 85%
    21:00 +9°C° 0.5 mm 3 mps 628 mmHg 87%
    22:00 +9°C° 0.5 mm 2 mps 628 mmHg 88%
    23:00 +8°C° 0.5 mm 2 mps 628 mmHg 89%
    Show more